Location: Springfield
(37.2150°N, 93.2980°W)
Time: 06:46:13
(UTC-05:00)

Daily predictions for brighter satellites

Satellite Brightness Start Highest point End
(mag) Time Altitude Azimuth Time Altitude Azimuth Time Altitude Azimuth
Cosmos 2237 4.2 20:11:36 10° SSW 20:17:15 75° ESE 20:22:57 10° NNE
Cosmos 1939 Rocket 4.1 20:17:20 10° ESE 20:20:22 22° ENE 20:23:26 10° NNE
Cosmos 2322 3.7 20:14:50 10° SSW 20:20:28 85° ESE 20:26:10 10° NNE
SJ-6B 3.0 20:17:10 10° SSE 20:21:08 54° ENE 20:25:03 10° N
Envisat 3.1 20:19:38 10° SSE 20:24:36 59° ENE 20:29:36 10° N
Cosmos 44 3.9 20:21:40 10° SW 20:26:01 58° WNW 20:30:38 10° NNE
Cosmos 1633 Rocket 4.2 20:28:42 10° NNE 20:32:18 25° ENE 20:35:51 10° SE
Cosmos 1437 3.0 20:33:14 10° SSW 20:36:23 70° W 20:39:34 10° N
SL-24 R/B - RUBIN 2 4.3 20:35:15 10° NNW 20:39:16 36° NE 20:42:34 14° ESE
Cosmos 2221 3.7 20:39:53 10° SSW 20:43:59 47° W 20:48:06 10° N
Cosmos 44 Rocket 3.9 20:40:06 10° SW 20:44:45 60° WNW 20:49:35 10° NNE
Thor Agena Rocket 3.5 20:41:13 10° NNE 20:46:29 78° ESE 20:51:45 10° S
Cosmos 2154 Rocket 4.0 20:41:34 10° S 20:47:46 66° E 20:53:56 10° NNE
Cosmos 1300 4.2 20:44:25 10° SSW 20:48:01 40° W 20:51:39 10° N
Meteor 2-2 Rocket 4.3 20:48:23 10° S 20:54:06 67° E 21:00:00 10° NNE
Cosmos 1805 Rocket 3.6 20:51:35 10° N 20:55:56 81° W 21:00:14 10° S
Resurs 01 Rocket 1.7 20:52:33 11° SSE 20:56:43 57° ENE 21:01:05 10° N
Cosmos 1980 4.3 20:51:51 10° SSE 20:56:49 32° ESE 21:01:48 10° NE
GPS 2-05 Rocket1 4.3 20:54:00 10° W 20:56:52 26° SSW 20:58:35 17° SSE
Cosmos 2360 Rocket 4.0 20:51:53 10° SW 20:56:58 34° WNW 21:02:06 10° N
ATLAS 3B CENTAUR R/B 4.4 20:44:26 10° W 20:57:10 30° SW 21:03:10 10° SSE
Meteor 1-27 4.4 20:51:39 10° SSE 20:57:11 50° E 21:02:39 10° NNE
Sakura Rocket 4.3 20:55:29 10° SW 20:58:47 20° S 20:59:59 18° SSE
CZ-2D R/B 4.3 20:56:57 10° S 21:00:35 45° W 21:04:16 10° NNW
Cosmos 1328 Rocket 3.8 20:56:46 10° SSE 21:00:57 45° E 21:05:11 10° NNE
Cosmos 2333 Rocket 2.2 20:57:22 10° S 21:02:56 61° ESE 21:08:31 10° NNE
NOSS 2-1 (C) 4.2 21:02:07 10° SW 21:05:36 47° NW 21:09:21 10° NNE
NOSS 2-1 (D) 4.3 21:03:07 10° SW 21:06:35 45° NW 21:10:20 10° NNE
Spot 2 Rocket 3.6 21:03:43 16° SSE 21:07:42 58° ENE 21:12:42 10° N
Cosmos 2341 Rocket 4.0 21:01:45 10° S 21:08:01 64° E 21:14:17 10° NNE
COSMOS 2428 3.1 21:02:29 10° SSW 21:08:11 70° WNW 21:13:55 10° NNE
Cosmos 1455 2.1 21:08:28 10° S 21:12:15 70° E 21:16:05 10° NNE
Cosmos 1470 Rocket 4.2 21:09:25 10° N 21:13:31 37° ENE 21:14:51 29° ESE
ATLAS 2AS CENTAUR R/B 3.3 21:06:19 10° NNW 21:13:57 49° NE 21:18:17 24° ESE
SJ-11-01 4.2 21:11:43 17° SSE 21:15:20 77° ENE 21:20:00 10° N
Cosmos 962 Rocket 4.4 21:10:20 10° S 21:16:25 78° E 21:22:35 10° N
Aureole 2 4.2 21:17:38 50° ESE 21:17:39 50° ESE 21:20:33 10° NNE
ERS-2 3.6 21:14:57 10° SSW 21:18:21 35° W 21:21:45 10° NNW
Cosmos 1844 Rocket 2.7 21:12:48 10° NNW 21:18:29 82° WSW 21:22:47 18° SSE
Cosmos 1844 3.7 21:13:07 10° NNW 21:18:51 78° ENE 21:22:30 23° SSE
ATLAS 2A CENTAUR R/B 4.4 21:04:07 10° SW 21:20:07 31° S 21:24:55 23° SE
Cosmos 1892 2.8 21:16:14 10° N 21:20:08 78° W 21:22:50 19° S
Cosmos 2237 Rocket 2.2 21:19:14 10° S 21:24:39 52° ESE 21:30:06 10° NNE
Cosmos 1408 3.4 21:22:13 10° NNE 21:25:16 32° ENE 21:25:16 32° ENE
Cosmos 2219 Rocket 2.4 21:19:57 10° SSW 21:25:36 72° WNW 21:31:16 10° NNE
ATLAS CENTAUR R/B 1.0 21:23:58 10° SSW 21:27:36 88° WNW 21:31:23 10° NNE
Cosmos 1295 Rocket 4.5 21:21:30 10° S 21:27:50 89° E 21:34:12 10° N
USA 186 3.5 21:27:34 14° SW 21:28:35 18° W 21:30:16 10° NW
Cosmos 2366 rocket 4.3 21:27:19 26° SE 21:30:22 45° E 21:36:17 10° NNE
NOSS 0 Rocket 3.8 21:28:19 10° SSW 21:34:28 81° ESE 21:40:41 10° NNE
Resurs 1-3 4.4 21:31:17 13° S 21:35:01 49° W 21:39:17 10° NNW
Genesis I 3.9 21:31:47 10° NNW 21:35:39 40° NE 21:35:57 39° ENE
Cosmos 2278 Rocket 2.6 21:30:22 10° N 21:35:48 45° ENE 21:37:22 36° ESE
NOAA 11 4.2 21:35:18 23° S 21:38:48 85° WSW 21:44:20 10° NNW
YAOGAN 6 4.5 21:36:13 10° SSW 21:39:19 28° W 21:42:29 10° NW
H-2A R/B 2.7 21:39:07 34° E 21:39:38 34° ENE 21:44:09 10° N
SL-8 Rocket 3.9 21:34:29 11° S 21:40:34 76° E 21:46:51 10° N
Cosmos 1933 Rocket 3.5 21:38:00 10° N 21:42:22 66° E 21:42:57 58° SE
OAO 2 Rocket 3.5 21:37:51 10° W 21:42:54 55° SSW 21:43:55 47° SSE
ERS-1 Rocket 3.5 21:50:18 40° ENE 21:50:27 40° ENE 21:55:08 10° N
Cosmos 1371 Rocket 4.0 21:50:10 47° SSE 21:51:27 61° ESE 21:56:44 10° NNE
Cosmos 1151 Rocket 3.2 21:50:12 29° SSW 21:52:16 68° W 21:56:32 10° N
Cosmos 220 Rocket 4.1 21:51:00 10° NNW 21:55:19 70° WSW 21:55:55 60° SSW
USA 267 3.2 21:52:00 10° NE 21:58:27 60° SE 22:04:52 10° SSW
Cosmos 1825 2.6 22:00:09 10° N 22:03:17 58° NNW 22:03:17 58° NNW
Cosmos 2344 4.1 22:10:53 38° E 22:10:53 38° E 22:16:45 10° NE
Cosmos 1869 3.7 22:10:13 60° NNW 22:10:13 60° NNW 22:13:43 10° N
Cosmos 2098 Rocket 3.2 22:11:35 77° SW 22:11:51 81° W 22:16:01 10° N
Cosmos 2228 Rocket 4.4 22:09:26 17° SW 22:12:19 37° WNW 22:16:25 10° N
Cosmos 864 Rocket 4.4 22:10:21 36° S 22:13:02 84° W 22:19:12 10° N
Cosmos 2056 Rocket 3.4 22:13:06 77° ESE 22:13:10 77° ESE 22:18:36 10° NNE
SL-16 R/B 2.9 22:15:04 38° NE 22:15:04 38° NE 22:18:47 10° NNE
SL-8 R/B 4.2 22:13:44 10° WSW 22:18:27 58° NNW 22:19:41 44° NNE
Helios 1A 4.3 22:26:20 35° N 22:26:20 35° N 22:28:53 10° N
ARGOS 3.3 22:26:04 59° SW 22:26:41 63° WSW 22:32:00 10° NNW
SL-08 RB Rocket 4.3 22:31:04 55° NW 22:31:04 55° NW 22:34:44 10° NNW
Cosmos 1624 Rocket 4.1 22:30:21 67° W 22:30:37 69° WNW 22:35:49 10° NNE
GEOS 3 Rocket 4.1 22:25:59 10° NNE 22:31:15 61° NW 22:36:24 10° SW
MetOp-B 4.3 22:33:14 61° WSW 22:33:30 62° W 22:38:48 10° NNW
Cosmos 1190 Rocket 4.4 22:32:21 10° NNW 22:36:40 58° N 22:36:40 58° N
Cosmos 2297 4.1 22:40:15 10° NNW 22:44:55 56° NNE 22:44:55 56° NNE
Cosmos 1727 Rocket 4.2 22:43:09 10° NNW 22:49:13 60° W 22:49:42 58° WSW
Cosmos 1821 Rocket 4.4 22:53:05 55° NE 22:53:05 55° NE 22:58:04 10° NNE
Cosmos 2369 Rocket 4.3 22:52:37 10° NNE 22:55:14 16° NE 22:55:14 16° NE
Terra 3.5 23:00:48 27° N 23:00:48 27° N 23:03:03 10° N
ATLAS 2AS CENTAUR R/B 3.8 22:57:52 10° NW 23:04:39 35° WSW 23:05:45 33° SW
SPOT 5 4.5 23:10:05 30° NW 23:10:05 30° NW 23:12:33 10° NNW
Cosmos 2237 Rocket 4.5 23:04:50 10° WSW 23:09:00 21° NW 23:13:12 10° N
Lacrosse 5 4.3 23:10:40 10° N 23:13:17 14° NNE 23:13:24 14° NNE
H-2A R/B 3.9 23:19:44 23° W 23:19:44 23° W 23:23:07 10° NW
Cosmos 2278 Rocket 4.0 23:15:14 10° NW 23:19:15 22° W 23:19:15 22° W
CZ-4C R/B 4.5 23:26:51 15° NE 23:26:51 15° NE 23:27:48 10° NE
ATLAS 5 CENTAUR R/B 4.2 23:27:20 10° N 23:31:11 23° NNE 23:31:11 23° NNE
NOSS 3-4 (A) 4.2 23:28:14 10° NW 23:34:10 59° WNW 23:34:10 59° WNW
NOSS 3-4 (C) 4.2 23:28:20 10° NW 23:34:16 59° WNW 23:34:16 59° WNW
USA 267 4.4 23:35:15 10° NNE 23:41:14 40° NNW 23:47:12 10° W
BREEZE-M DEB (TANK) 4.3 23:23:15 10° WNW 23:44:23 74° NNE 23:44:23 74° NNE
